| time (UTC) | temp C | wind direction | speed KPH | gust KPH | rain 1hr cm | rain 24hr cm | rain mn cm | humidity % | barometer mb |
| 20260502130500 | 5 | 27 | 0.0 | 1.6 | 0.00 | 0.00 | 0.00 | 60 | 1015.0 |
| 20260502123410 | 3 | 27 | 0.0 | 0.0 | 0.00 | 0.00 | 0.00 | 72 | 1014.9 |
| 20260502122855 | 3 | 27 | 0.0 | 0.0 | 0.00 | 0.00 | 0.00 | 76 | 1014.8 |
| 20260502122352 | 2 | 27 | 0.0 | 0.0 | 0.00 | 0.00 | 0.00 | 79 | 1014.7 |
| 20260502121849 | 2 | 27 | 0.0 | 0.0 | 0.00 | 0.00 | 0.00 | 81 | 1014.6 |
| 20260502121608 | 1 | 34 | 0.0 | 0.0 | 0.00 | 0.00 | 0.00 | 83 | 1014.5 |
| 20260502120839 | 0 | 0 | 0.0 | 0.0 | 0.00 | 0.00 | 0.00 | 84 | 1014.2 |
| 20260502120759 | 0 | 27 | 0.0 | 0.0 | 0.00 | 0.00 | 0.00 | 82 | 1014.1 |
| 20260502120421 | 0 | 0 | 0.0 | 0.0 | 0.00 | 0.00 | 0.00 | 83 | 1014.1 |
| 20260502115312 | 0 | 27 | 0.0 | 0.0 | 0.00 | 0.00 | 0.00 | 82 | 1013.7 |
| 20260502114757 | 0 | 27 | 0.0 | 0.0 | 0.00 | 0.00 | 0.00 | 81 | 1013.7 |
| 20260502114511 | 0 | 27 | 0.0 | 0.0 | 0.00 | 0.00 | 0.00 | 80 | 1013.7 |
| 20260502113946 | 0 | 27 | 0.0 | 0.0 | 0.00 | 0.00 | 0.00 | 80 | 1013.6 |
| 20260502113216 | 0 | 27 | 0.0 | 0.0 | 0.00 | 0.00 | 0.00 | 80 | 1013.6 |
| 20260502112907 | 0 | 27 | 0.0 | 0.0 | 0.00 | 0.00 | 0.00 | 80 | 1013.6 |
| 20260502112549 | 0 | 27 | 0.0 | 0.0 | 0.00 | 0.00 | 0.00 | 81 | 1013.6 |
| 20260502111753 | 0 | 27 | 0.0 | 0.0 | 0.00 | 0.00 | 0.00 | 81 | 1013.6 |
| 20260502110953 | 0 | 27 | 0.0 | 0.0 | 0.00 | 0.00 | 0.00 | 81 | 1013.6 |
| 20260502110417 | 0 | 27 | 0.0 | 0.0 | 0.00 | 0.00 | 0.00 | 81 | 1013.6 |
| 20260502105857 | 0 | 27 | 0.0 | 0.0 | 0.00 | 0.00 | 0.00 | 81 | 1013.6 |
| 20260502105354 | 0 | 27 | 0.0 | 0.0 | 0.00 | 0.00 | 0.00 | 81 | 1013.5 |
| 20260502104825 | 0 | 27 | 0.0 | 0.0 | 0.00 | 0.00 | 0.00 | 81 | 1013.4 |
| 20260502104316 | 0 | 27 | 0.0 | 0.0 | 0.00 | 0.00 | 0.00 | 80 | 1013.4 |
| 20260502104027 | 0 | 27 | 0.0 | 0.0 | 0.00 | 0.00 | 0.00 | 80 | 1013.5 |
| 20260502103742 | 0 | 27 | 0.0 | 0.0 | 0.00 | 0.00 | 0.00 | 80 | 1013.5 |
| 20260502102736 | 0 | 27 | 0.0 | 0.0 | 0.00 | 0.00 | 0.00 | 80 | 1013.5 |
| 20260502102229 | 0 | 27 | 0.0 | 0.0 | 0.00 | 0.00 | 0.00 | 80 | 1013.4 |
| 20260502101703 | 0 | 27 | 0.0 | 0.0 | 0.00 | 0.00 | 0.00 | 80 | 1013.4 |
| 20260502101201 | 0 | 27 | 0.0 | 0.0 | 0.00 | 0.00 | 0.00 | 80 | 1013.4 |
| 20260502100644 | 0 | 27 | 0.0 | 0.0 | 0.00 | 0.00 | 0.00 | 79 | 1013.4 |
| 20260502100128 | 0 | 27 | 0.0 | 0.0 | 0.00 | 0.00 | 0.00 | 79 | 1013.4 |
| 20260502091352 | 0 | 27 | 0.0 | 0.0 | 0.00 | 0.00 | 0.00 | 76 | 1013.2 |
| 20260502090855 | 0 | 27 | 0.0 | 0.0 | 0.00 | 0.00 | 0.00 | 76 | 1013.1 |
| 20260502090327 | 0 | 27 | 0.0 | 0.0 | 0.00 | 0.00 | 0.00 | 75 | 1013.1 |
| 20260502071441 | 2 | 28 | 0.0 | 0.0 | 0.00 | 0.00 | 0.00 | 65 | 1013.8 |
| 20260502070914 | 2 | 28 | 0.0 | 0.0 | 0.00 | 0.00 | 0.00 | 65 | 1013.8 |
| 20260502070332 | 2 | 28 | 0.0 | 0.0 | 0.00 | 0.00 | 0.00 | 65 | 1013.8 |
| 20260502065756 | 2 | 28 | 0.0 | 0.0 | 0.00 | 0.00 | 0.00 | 66 | 1013.8 |
| 20260502065230 | 2 | 28 | 0.0 | 0.0 | 0.00 | 0.00 | 0.00 | 66 | 1013.8 |
| 20260502064731 | 2 | 28 | 0.0 | 0.0 | 0.00 | 0.00 | 0.00 | 65 | 1013.8 |
| 20260502064434 | 2 | 28 | 0.0 | 0.0 | 0.00 | 0.00 | 0.00 | 65 | 1013.8 |
| 20260502063656 | 2 | 28 | 0.0 | 0.0 | 0.00 | 0.00 | 0.00 | 65 | 1013.8 |
| 20260502063144 | 2 | 28 | 0.0 | 0.0 | 0.00 | 0.00 | 0.00 | 64 | 1013.8 |
| 20260502062647 | 2 | 28 | 0.0 | 0.0 | 0.00 | 0.00 | 0.00 | 63 | 1013.8 |
| 20260502062112 | 2 | 28 | 0.0 | 0.0 | 0.00 | 0.00 | 0.00 | 63 | 1013.6 |
| 20260502062048 | 2 | 28 | 0.0 | 0.0 | 0.00 | 0.00 | 0.00 | 63 | 1013.6 |
| 20260502061050 | 2 | 28 | 0.0 | 0.0 | 0.00 | 0.00 | 0.00 | 62 | 1013.6 |
| 20260502060548 | 2 | 28 | 0.0 | 0.0 | 0.00 | 0.00 | 0.00 | 62 | 1013.6 |
| 20260502060041 | 2 | 28 | 0.0 | 0.0 | 0.00 | 0.00 | 0.00 | 61 | 1013.6 |
| 20260502055532 | 3 | 28 | 0.0 | 0.0 | 0.00 | 0.00 | 0.00 | 61 | 1013.6 |
| 20260502055021 | 3 | 28 | 0.0 | 0.0 | 0.00 | 0.00 | 0.00 | 60 | 1013.4 |
| 20260502054502 | 3 | 27 | 0.0 | 0.0 | 0.00 | 0.00 | 0.00 | 59 | 1013.5 |
| 20260502053954 | 3 | 27 | 0.0 | 0.0 | 0.00 | 0.00 | 0.00 | 58 | 1013.5 |
| 20260502053441 | 3 | 27 | 0.0 | 0.0 | 0.00 | 0.00 | 0.00 | 58 | 1013.5 |
| 20260502052905 | 3 | 27 | 0.0 | 0.0 | 0.00 | 0.00 | 0.00 | 58 | 1013.5 |
| 20260502052406 | 3 | 28 | 0.0 | 0.0 | 0.00 | 0.00 | 0.00 | 58 | 1013.6 |
| 20260502051833 | 4 | 35 | 0.0 | 0.0 | 0.00 | 0.00 | 0.00 | 57 | 1013.5 |
| 20260502051334 | 4 | 0 | 0.0 | 0.0 | 0.00 | 0.00 | 0.00 | 56 | 1013.5 |
| 20260502050824 | 4 | 0 | 0.0 | 0.0 | 0.00 | 0.00 | 0.00 | 55 | 1013.4 |
| 20260502050243 | 4 | 0 | 0.0 | 0.0 | 0.00 | 0.00 | 0.00 | 55 | 1013.5 |
| 20260502045702 | 4 | 28 | 0.0 | 0.0 | 0.00 | 0.00 | 0.00 | 54 | 1013.5 |
| 20260502045158 | 5 | 27 | 0.0 | 0.0 | 0.00 | 0.00 | 0.00 | 52 | 1013.5 |
| 20260502044627 | 5 | 27 | 0.0 | 0.0 | 0.00 | 0.00 | 0.00 | 51 | 1013.6 |
| 20260502044105 | 5 | 27 | 0.0 | 0.0 | 0.00 | 0.00 | 0.00 | 51 | 1013.6 |
| 20260502043607 | 5 | 28 | 0.0 | 1.6 | 0.00 | 0.00 | 0.00 | 50 | 1013.5 |
| 20260502043053 | 5 | 27 | 0.0 | 1.6 | 0.00 | 0.00 | 0.00 | 50 | 1013.5 |
| 20260502042811 | 5 | 27 | 0.0 | 1.6 | 0.00 | 0.00 | 0.00 | 50 | 1013.5 |
| 20260502042239 | 5 | 28 | 0.0 | 0.0 | 0.00 | 0.00 | 0.00 | 49 | 1013.4 |
| 20260502042007 | 6 | 28 | 0.0 | 0.0 | 0.00 | 0.00 | 0.00 | 50 | 1013.5 |
| 20260502041019 | 6 | 28 | 0.0 | 1.6 | 0.00 | 0.00 | 0.00 | 50 | 1013.5 |
| 20260502040723 | 6 | 28 | 0.0 | 1.6 | 0.00 | 0.00 | 0.00 | 49 | 1013.5 |
| 20260502040229 | 6 | 28 | 0.0 | 1.6 | 0.00 | 0.00 | 0.00 | 49 | 1013.5 |
| 20260502035441 | 6 | 28 | 0.0 | 3.2 | 0.00 | 0.00 | 0.00 | 49 | 1013.5 |
| 20260502034934 | 5 | 29 | 0.0 | 3.2 | 0.00 | 0.00 | 0.00 | 49 | 1013.4 |
| 20260502034636 | 5 | 324 | 0.0 | 3.2 | 0.00 | 0.00 | 0.00 | 50 | 1013.4 |
| 20260502033903 | 5 | 288 | 0.0 | 0.0 | 0.00 | 0.00 | 0.00 | 50 | 1013.2 |
| 20260502033355 | 5 | 288 | 0.0 | 0.0 | 0.00 | 0.00 | 0.00 | 50 | 1013.2 |
| 20260502032851 | 6 | 288 | 0.0 | 0.0 | 0.00 | 0.00 | 0.00 | 49 | 1013.2 |
| 20260502032602 | 6 | 288 | 0.0 | 0.0 | 0.00 | 0.00 | 0.00 | 49 | 1013.2 |
| 20260502032101 | 6 | 288 | 0.0 | 0.0 | 0.00 | 0.00 | 0.00 | 49 | 1013.3 |
| 20260502031330 | 6 | 288 | 0.0 | 0.0 | 0.00 | 0.00 | 0.00 | 47 | 1013.3 |
| 20260502031052 | 6 | 288 | 0.0 | 0.0 | 0.00 | 0.00 | 0.00 | 46 | 1013.3 |
| 20260502030332 | 6 | 288 | 0.0 | 1.6 | 0.00 | 0.00 | 0.00 | 46 | 1013.3 |
| 20260502025811 | 7 | 288 | 0.0 | 1.6 | 0.00 | 0.00 | 0.00 | 45 | 1013.4 |
| 20260502025309 | 7 | 0 | 0.0 | 1.6 | 0.00 | 0.00 | 0.00 | 45 | 1013.0 |
| 20260502024804 | 7 | 0 | 0.0 | 1.6 | 0.00 | 0.00 | 0.00 | 44 | 1013.0 |
| 20260502024247 | 7 | 240 | 0.0 | 0.0 | 0.00 | 0.00 | 0.00 | 43 | 1013.1 |
| 20260502023740 | 7 | 0 | 0.0 | 0.0 | 0.00 | 0.00 | 0.00 | 43 | 1012.9 |
| 20260502023233 | 7 | 242 | 0.0 | 1.6 | 0.00 | 0.00 | 0.00 | 42 | 1012.9 |
| 20260502022717 | 8 | 242 | 0.0 | 6.4 | 0.00 | 0.00 | 0.00 | 41 | 1013.0 |
| 20260502022439 | 8 | 0 | 0.0 | 6.4 | 0.00 | 0.00 | 0.00 | 41 | 1012.8 |
| 20260502021711 | 8 | 0 | 0.0 | 3.2 | 0.00 | 0.00 | 0.00 | 40 | 1012.8 |
| 20260502021142 | 8 | 0 | 0.0 | 1.6 | 0.00 | 0.00 | 0.00 | 39 | 1012.8 |
| 20260502020901 | 8 | 0 | 0.0 | 4.8 | 0.00 | 0.00 | 0.00 | 39 | 1012.9 |
| 20260502020338 | 8 | 0 | 0.0 | 4.8 | 0.00 | 0.00 | 0.00 | 38 | 1012.9 |
| 20260502015605 | 9 | 0 | 1.6 | 3.2 | 0.00 | 0.00 | 0.00 | 37 | 1012.9 |
| 20260502015051 | 9 | 0 | 0.0 | 3.2 | 0.00 | 0.00 | 0.00 | 36 | 1012.7 |
| 20260502014537 | 9 | 0 | 0.0 | 8.0 | 0.00 | 0.00 | 0.00 | 36 | 1012.7 |
| 20260502014031 | 10 | 338 | 1.6 | 8.0 | 0.00 | 0.00 | 0.00 | 35 | 1012.7 |
| 20260502013741 | 10 | 321 | 1.6 | 4.8 | 0.00 | 0.00 | 0.00 | 35 | 1012.6 |
| 20260502013006 | 10 | 0 | 1.6 | 6.4 | 0.00 | 0.00 | 0.00 | 34 | 1012.7 |
| 20260502012505 | 10 | 0 | 1.6 | 6.4 | 0.00 | 0.00 | 0.00 | 34 | 1012.7 |
| 20260502012005 | 10 | 0 | 1.6 | 6.4 | 0.00 | 0.00 | 0.00 | 33 | 1012.6 |
| 20260502011450 | 10 | 0 | 1.6 | 4.8 | 0.00 | 0.00 | 0.00 | 33 | 1012.6 |
| 20260502011215 | 10 | 0 | 1.6 | 6.4 | 0.00 | 0.00 | 0.00 | 33 | 1012.7 |
| 20260502010440 | 11 | 0 | 1.6 | 6.4 | 0.00 | 0.00 | 0.00 | 32 | 1012.6 |
| 20260502010203 | 11 | 313 | 1.6 | 6.4 | 0.00 | 0.00 | 0.00 | 31 | 1012.6 |
| 20260502005443 | 11 | 355 | 1.6 | 8.0 | 0.00 | 0.00 | 0.00 | 30 | 1012.6 |
| 20260502004923 | 11 | 0 | 1.6 | 8.0 | 0.00 | 0.00 | 0.00 | 30 | 1012.5 |
| 20260502004424 | 11 | 300 | 1.6 | 4.8 | 0.00 | 0.00 | 0.00 | 30 | 1012.5 |
| 20260502003924 | 11 | 349 | 3.2 | 14.5 | 0.00 | 0.00 | 0.00 | 30 | 1012.5 |
| 20260502003421 | 11 | 308 | 4.8 | 17.7 | 0.00 | 0.00 | 0.00 | 30 | 1012.4 |
| 20260502002919 | 12 | 344 | 6.4 | 17.7 | 0.00 | 0.00 | 0.00 | 29 | 1012.5 |
| 20260502002413 | 12 | 310 | 4.8 | 17.7 | 0.00 | 0.00 | 0.00 | 28 | 1012.3 |
| 20260502001900 | 12 | 13 | 3.2 | 11.3 | 0.00 | 0.00 | 0.00 | 30 | 1012.3 |
| 20260502001349 | 12 | 9 | 1.6 | 11.3 | 0.00 | 0.00 | 0.00 | 27 | 1012.3 |
| 20260502000842 | 12 | 306 | 1.6 | 8.0 | 0.00 | 0.00 | 0.00 | 29 | 1012.2 |
| 20260502000339 | 12 | 284 | 3.2 | 12.9 | 0.00 | 0.00 | 0.00 | 28 | 1012.2 |
| 20260501235826 | 12 | 16 | 3.2 | 16.1 | 0.00 | 0.00 | 0.00 | 28 | 1012.3 |
| 20260501235327 | 12 | 257 | 3.2 | 16.1 | 0.00 | 0.00 | 0.00 | 29 | 1012.2 |
| 20260501234820 | 12 | 272 | 3.2 | 9.7 | 0.00 | 0.00 | 0.00 | 28 | 1012.2 |
| 20260501234755 | 13 | 0 | 3.2 | 16.1 | 0.00 | 0.00 | 0.00 | 28 | 1012.2 |
| 20260501233804 | 13 | 324 | 4.8 | 16.1 | 0.00 | 0.00 | 0.00 | 27 | 1012.3 |
| 20260501233257 | 13 | 348 | 3.2 | 14.5 | 0.00 | 0.00 | 0.00 | 28 | 1012.3 |
| 20260501232745 | 13 | 333 | 4.8 | 17.7 | 0.00 | 0.00 | 0.00 | 28 | 1012.3 |
| 20260501232247 | 13 | 340 | 6.4 | 17.7 | 0.00 | 0.00 | 0.00 | 27 | 1012.2 |
| 20260501231742 | 13 | 9 | 6.4 | 16.1 | 0.00 | 0.00 | 0.00 | 28 | 1012.2 |
| 20260501231236 | 13 | 11 | 8.0 | 17.7 | 0.00 | 0.00 | 0.00 | 28 | 1012.2 |
| 20260501230730 | 13 | 5 | 6.4 | 17.7 | 0.00 | 0.00 | 0.00 | 27 | 1012.1 |
| 20260501230223 | 13 | 310 | 4.8 | 14.5 | 0.00 | 0.00 | 0.00 | 28 | 1012.1 |
| 20260501225940 | 13 | 31 | 4.8 | 16.1 | 0.00 | 0.00 | 0.00 | 30 | 1012.1 |
| 20260501225207 | 13 | 28 | 4.8 | 16.1 | 0.00 | 0.00 | 0.00 | 29 | 1012.2 |
| 20260501224706 | 12 | 42 | 3.2 | 9.7 | 0.00 | 0.00 | 0.00 | 33 | 1012.1 |
| 20260501224425 | 12 | 16 | 4.8 | 11.3 | 0.00 | 0.00 | 0.00 | 31 | 1012.1 |
| 20260501223644 | 12 | 49 | 4.8 | 11.3 | 0.00 | 0.00 | 0.00 | 31 | 1012.0 |
| 20260501223142 | 12 | 12 | 4.8 | 11.3 | 0.00 | 0.00 | 0.00 | 32 | 1012.0 |
| 20260501222638 | 12 | 0 | 4.8 | 20.9 | 0.00 | 0.00 | 0.00 | 32 | 1012.0 |
| 20260501222124 | 13 | 76 | 6.4 | 20.9 | 0.00 | 0.00 | 0.00 | 29 | 1012.0 |
| 20260501221839 | 13 | 0 | 6.4 | 19.3 | 0.00 | 0.00 | 0.00 | 31 | 1012.1 |
| 20260501221339 | 12 | 345 | 4.8 | 16.1 | 0.00 | 0.00 | 0.00 | 31 | 1012.0 |
| 20260501220607 | 12 | 23 | 6.4 | 16.1 | 0.00 | 0.00 | 0.00 | 31 | 1011.9 |
| 20260501220100 | 12 | 31 | 8.0 | 20.9 | 0.00 | 0.00 | 0.00 | 31 | 1011.9 |
| 20260501215554 | 13 | 39 | 8.0 | 20.9 | 0.00 | 0.00 | 0.00 | 31 | 1012.0 |
| 20260501215043 | 13 | 5 | 6.4 | 16.1 | 0.00 | 0.00 | 0.00 | 31 | 1012.0 |
| 20260501214543 | 13 | 342 | 4.8 | 16.1 | 0.00 | 0.00 | 0.00 | 32 | 1012.0 |
| 20260501214030 | 13 | 355 | 4.8 | 16.1 | 0.00 | 0.00 | 0.00 | 36 | 1012.0 |
| 20260501213530 | 13 | 341 | 6.4 | 16.1 | 0.00 | 0.00 | 0.00 | 32 | 1011.9 |
| 20260501213245 | 13 | 5 | 4.8 | 14.5 | 0.00 | 0.00 | 0.00 | 33 | 1012.0 |
| 20260501212514 | 13 | 323 | 4.8 | 11.3 | 0.00 | 0.00 | 0.00 | 31 | 1012.0 |
| 20260501212012 | 13 | 355 | 4.8 | 16.1 | 0.00 | 0.00 | 0.00 | 36 | 1012.1 |
| 20260501211502 | 13 | 11 | 4.8 | 16.1 | 0.00 | 0.00 | 0.00 | 35 | 1012.1 |
| 20260501211000 | 13 | 329 | 6.4 | 20.9 | 0.00 | 0.00 | 0.00 | 32 | 1012.1 |
| 20260501210714 | 13 | 33 | 6.4 | 20.9 | 0.00 | 0.00 | 0.00 | 32 | 1012.1 |
| 20260501205949 | 13 | 24 | 6.4 | 16.1 | 0.00 | 0.00 | 0.00 | 34 | 1012.2 |
| 20260501205443 | 13 | 26 | 6.4 | 19.3 | 0.00 | 0.00 | 0.00 | 35 | 1012.1 |
| 20260501205204 | 13 | 32 | 6.4 | 19.3 | 0.00 | 0.00 | 0.00 | 35 | 1012.1 |
| 20260501204430 | 13 | 5 | 4.8 | 14.5 | 0.00 | 0.00 | 0.00 | 36 | 1012.1 |
| 20260501203924 | 14 | 342 | 4.8 | 11.3 | 0.00 | 0.00 | 0.00 | 35 | 1012.1 |
| 20260501203419 | 13 | 347 | 4.8 | 11.3 | 0.00 | 0.00 | 0.00 | 31 | 1012.2 |
| 20260501202912 | 13 | 302 | 4.8 | 11.3 | 0.00 | 0.00 | 0.00 | 35 | 1012.1 |
| 20260501202401 | 13 | 332 | 4.8 | 12.9 | 0.00 | 0.00 | 0.00 | 35 | 1012.2 |
| 20260501201900 | 13 | 28 | 6.4 | 17.7 | 0.00 | 0.00 | 0.00 | 33 | 1012.2 |
| 20260501201349 | 13 | 338 | 6.4 | 19.3 | 0.00 | 0.00 | 0.00 | 33 | 1012.2 |
| 20260501200849 | 13 | 0 | 4.8 | 19.3 | 0.00 | 0.00 | 0.00 | 34 | 1012.2 |
| 20260501200343 | 13 | 351 | 4.8 | 19.3 | 0.00 | 0.00 | 0.00 | 33 | 1012.3 |
| 20260501195837 | 13 | 0 | 6.4 | 16.1 | 0.00 | 0.00 | 0.00 | 32 | 1012.2 |
| 20260501195331 | 13 | 163 | 4.8 | 16.1 | 0.00 | 0.00 | 0.00 | 32 | 1012.1 |
| 20260501194820 | 13 | 332 | 4.8 | 14.5 | 0.00 | 0.00 | 0.00 | 32 | 1012.1 |
| 20260501194318 | 13 | 355 | 6.4 | 17.7 | 0.00 | 0.00 | 0.00 | 34 | 1012.2 |
| 20260501193812 | 14 | 26 | 4.8 | 17.7 | 0.00 | 0.00 | 0.00 | 33 | 1012.3 |
| 20260501193306 | 13 | 13 | 4.8 | 14.5 | 0.00 | 0.00 | 0.00 | 33 | 1012.3 |
| 20260501192800 | 13 | 312 | 6.4 | 14.5 | 0.00 | 0.00 | 0.00 | 31 | 1012.3 |
| 20260501192512 | 13 | 205 | 6.4 | 16.1 | 0.00 | 0.00 | 0.00 | 33 | 1012.4 |
| 20260501192012 | 13 | 334 | 6.4 | 19.3 | 0.00 | 0.00 | 0.00 | 37 | 1012.3 |
| 20260501191238 | 13 | 0 | 4.8 | 19.3 | 0.00 | 0.00 | 0.00 | 32 | 1012.3 |
| 20260501190953 | 13 | 314 | 4.8 | 11.3 | 0.00 | 0.00 | 0.00 | 35 | 1012.2 |
| 20260501190230 | 13 | 302 | 6.4 | 16.1 | 0.00 | 0.00 | 0.00 | 36 | 1012.2 |
| 20260501185724 | 13 | 5 | 6.4 | 16.1 | 0.00 | 0.00 | 0.00 | 35 | 1012.2 |
| 20260501185444 | 13 | 36 | 4.8 | 11.3 | 0.00 | 0.00 | 0.00 | 35 | 1012.4 |
| 20260501184708 | 13 | 350 | 4.8 | 14.5 | 0.00 | 0.00 | 0.00 | 39 | 1012.4 |
| 20260501184205 | 12 | 355 | 4.8 | 19.3 | 0.00 | 0.00 | 0.00 | 38 | 1012.3 |
| 20260501183926 | 12 | 351 | 4.8 | 19.3 | 0.00 | 0.00 | 0.00 | 38 | 1012.1 |
| 20260501183149 | 13 | 302 | 6.4 | 14.5 | 0.00 | 0.00 | 0.00 | 39 | 1012.2 |
| 20260501182646 | 12 | 55 | 4.8 | 14.5 | 0.00 | 0.00 | 0.00 | 38 | 1012.1 |
| 20260501182141 | 12 | 0 | 4.8 | 14.5 | 0.00 | 0.00 | 0.00 | 40 | 1012.2 |
| 20260501181853 | 12 | 355 | 6.4 | 16.1 | 0.00 | 0.00 | 0.00 | 38 | 1012.2 |
| 20260501181129 | 12 | 355 | 4.8 | 16.1 | 0.00 | 0.00 | 0.00 | 37 | 1012.2 |
| 20260501180618 | 12 | 48 | 6.4 | 17.7 | 0.00 | 0.00 | 0.00 | 39 | 1012.4 |
| 20260501180117 | 12 | 281 | 6.4 | 17.7 | 0.00 | 0.00 | 0.00 | 38 | 1012.4 |
| 20260501175828 | 12 | 55 | 6.4 | 19.3 | 0.00 | 0.00 | 0.00 | 39 | 1012.4 |
| 20260501175104 | 12 | 25 | 4.8 | 19.3 | 0.00 | 0.00 | 0.00 | 42 | 1012.4 |
| 20260501174821 | 12 | 349 | 6.4 | 17.7 | 0.00 | 0.00 | 0.00 | 41 | 1012.4 |
| 20260501174052 | 12 | 16 | 6.4 | 17.7 | 0.00 | 0.00 | 0.00 | 38 | 1012.4 |
| 20260501173546 | 12 | 211 | 4.8 | 16.1 | 0.00 | 0.00 | 0.00 | 42 | 1012.5 |
| 20260501173255 | 12 | 310 | 6.4 | 20.9 | 0.00 | 0.00 | 0.00 | 41 | 1012.5 |
| 20260501173132 | 12 | 5 | 4.8 | 16.1 | 0.00 | 0.00 | 0.00 | 40 | 1012.5 |
| 20260501172028 | 12 | 0 | 8.0 | 20.9 | 0.00 | 0.00 | 0.00 | 41 | 1012.4 |
| 20260501171522 | 12 | 328 | 6.4 | 16.1 | 0.00 | 0.00 | 0.00 | 41 | 1012.4 |
| 20260501171016 | 12 | 43 | 6.4 | 17.7 | 0.00 | 0.00 | 0.00 | 42 | 1012.4 |
| 20260501170724 | 12 | 15 | 4.8 | 17.7 | 0.00 | 0.00 | 0.00 | 44 | 1012.4 |
| 20260501170004 | 12 | 0 | 6.4 | 17.7 | 0.00 | 0.00 | 0.00 | 47 | 1012.4 |
| 20260501165503 | 12 | 0 | 6.4 | 17.7 | 0.00 | 0.00 | 0.00 | 43 | 1012.4 |
| 20260501165000 | 12 | 323 | 6.4 | 17.7 | 0.00 | 0.00 | 0.00 | 44 | 1012.3 |
| 20260501164954 | 12 | 13 | 4.8 | 17.7 | 0.00 | 0.00 | 0.00 | 43 | 1012.3 |
| 20260501164001 | 12 | 36 | 6.4 | 17.7 | 0.00 | 0.00 | 0.00 | 46 | 1012.3 |
| 20260501163504 | 12 | 29 | 6.4 | 19.3 | 0.00 | 0.00 | 0.00 | 44 | 1012.1 |
| 20260501162959 | 12 | 37 | 6.4 | 19.3 | 0.00 | 0.00 | 0.00 | 43 | 1012.1 |
| 20260501162500 | 12 | 346 | 4.8 | 14.5 | 0.00 | 0.00 | 0.00 | 43 | 1012.1 |
| 20260501161957 | 12 | 331 | 6.4 | 19.3 | 0.00 | 0.00 | 0.00 | 48 | 1012.1 |
| 20260501161456 | 12 | 340 | 6.4 | 20.9 | 0.00 | 0.00 | 0.00 | 48 | 1012.0 |
| 20260501161448 | 12 | 11 | 6.4 | 20.9 | 0.00 | 0.00 | 0.00 | 46 | 1012.0 |
| 20260501160500 | 12 | 19 | 6.4 | 17.7 | 0.00 | 0.00 | 0.00 | 50 | 1012.1 |
| 20260501155954 | 11 | 5 | 6.4 | 17.7 | 0.00 | 0.00 | 0.00 | 48 | 1012.1 |
| 20260501155445 | 11 | 355 | 6.4 | 17.7 | 0.00 | 0.00 | 0.00 | 47 | 1012.1 |
| 20260501154942 | 11 | 44 | 4.8 | 14.5 | 0.00 | 0.00 | 0.00 | 50 | 1012.0 |
| 20260501154443 | 11 | 26 | 6.4 | 16.1 | 0.00 | 0.00 | 0.00 | 48 | 1011.9 |
| 20260501154214 | 11 | 355 | 4.8 | 16.1 | 0.00 | 0.00 | 0.00 | 52 | 1011.9 |
| 20260501153705 | 11 | 13 | 4.8 | 16.1 | 0.00 | 0.00 | 0.00 | 50 | 1011.9 |
| 20260501153434 | 11 | 321 | 6.4 | 11.3 | 0.00 | 0.00 | 0.00 | 50 | 1011.9 |
| 20260501152440 | 11 | 278 | 4.8 | 11.3 | 0.00 | 0.00 | 0.00 | 51 | 1011.9 |
| 20260501152200 | 11 | 25 | 4.8 | 16.1 | 0.00 | 0.00 | 0.00 | 50 | 1011.9 |
| 20260501151442 | 11 | 355 | 4.8 | 16.1 | 0.00 | 0.00 | 0.00 | 50 | 1011.9 |
| 20260501150936 | 11 | 0 | 4.8 | 19.3 | 0.00 | 0.00 | 0.00 | 53 | 1011.8 |
| 20260501150424 | 11 | 307 | 4.8 | 19.3 | 0.00 | 0.00 | 0.00 | 51 | 1011.7 |
| 20260501145919 | 11 | 323 | 3.2 | 11.3 | 0.00 | 0.00 | 0.00 | 53 | 1011.7 |
| 20260501145900 | 11 | 299 | 3.2 | 8.0 | 0.00 | 0.00 | 0.00 | 51 | 1011.7 |
| 20260501144916 | 10 | 47 | 4.8 | 17.7 | 0.00 | 0.00 | 0.00 | 52 | 1011.7 |
| 20260501144418 | 10 | 324 | 4.8 | 17.7 | 0.00 | 0.00 | 0.00 | 52 | 1011.7 |
| 20260501143916 | 10 | 309 | 4.8 | 11.3 | 0.00 | 0.00 | 0.00 | 50 | 1011.7 |
| 20260501143642 | 10 | 13 | 3.2 | 9.7 | 0.00 | 0.00 | 0.00 | 50 | 1011.7 |
| 20260501142915 | 10 | 355 | 3.2 | 14.5 | 0.00 | 0.00 | 0.00 | 54 | 1011.6 |
| 20260501142414 | 10 | 0 | 3.2 | 14.5 | 0.00 | 0.00 | 0.00 | 52 | 1011.6 |
| 20260501141915 | 9 | 261 | 3.2 | 12.9 | 0.00 | 0.00 | 0.00 | 54 | 1011.7 |
| 20260501141410 | 9 | 0 | 1.6 | 9.7 | 0.00 | 0.00 | 0.00 | 56 | 1011.6 |
| 20260501141121 | 9 | 332 | 1.6 | 9.7 | 0.00 | 0.00 | 0.00 | 55 | 1011.5 |
| 20260501140344 | 8 | 342 | 3.2 | 8.0 | 0.00 | 0.00 | 0.00 | 57 | 1011.5 |
| 20260501140106 | 8 | 286 | 3.2 | 11.3 | 0.00 | 0.00 | 0.00 | 55 | 1011.5 |
| 20260501135346 | 8 | 317 | 3.2 | 11.3 | 0.00 | 0.00 | 0.00 | 57 | 1011.5 |
| 20260501135100 | 8 | 302 | 3.2 | 9.7 | 0.00 | 0.00 | 0.00 | 57 | 1011.5 |
| 20260501134327 | 8 | 282 | 3.2 | 9.7 | 0.00 | 0.00 | 0.00 | 58 | 1011.4 |
| 20260501133816 | 7 | 299 | 3.2 | 9.7 | 0.00 | 0.00 | 0.00 | 61 | 1011.5 |
| 20260501133303 | 7 | 257 | 3.2 | 11.3 | 0.00 | 0.00 | 0.00 | 60 | 1011.5 |